When you browse on this site, cookies collect data to enhance your experience and personalize the content and advertising you see.
Visit our Privacy Policy to learn more. By continuing to use the site, you agree to this use of cookies and data.

Stündliche Wetter Tolcayuca

Heute, 4 August, Dienstag

Zeit Temperatur Niederschläge Wind Luftdruck Luftfeuchtigkeit
00:00 +15°C° 0.2 mm 1 m/S 577 mmHg 89%
01:00 +14°C° 0.2 mm 0 m/S 577 mmHg 89%
02:00 +14°C° 0.2 mm 0 m/S 577 mmHg 90%
03:00 +13°C° 0 mm 0 m/S 576 mmHg 89%
04:00 +14°C° 0 mm 1 m/S 576 mmHg 89%
05:00 +14°C° 0 mm 1 m/S 576 mmHg 88%
06:00 +15°C° 0 mm 1 m/S 577 mmHg 83%
07:00 +18°C° 0 mm 1 m/S 578 mmHg 78%
08:00 +19°C° 0 mm 1 m/S 579 mmHg 72%
09:00 +20°C° 0.1 mm 1 m/S 579 mmHg 67%
10:00 +21°C° 0.1 mm 2 m/S 580 mmHg 61%
11:00 +22°C° 0.1 mm 3 m/S 580 mmHg 56%
12:00 +24°C° 0.5 mm 3 m/S 580 mmHg 56%
13:00 +23°C° 0.5 mm 4 m/S 579 mmHg 57%
14:00 +23°C° 0.5 mm 5 m/S 579 mmHg 57%
15:00 +22°C° 1.1 mm 4 m/S 578 mmHg 63%
16:00 +21°C° 1.1 mm 4 m/S 578 mmHg 69%
17:00 +19°C° 1.1 mm 4 m/S 577 mmHg 75%
18:00 +18°C° 1.1 mm 3 m/S 577 mmHg 79%
19:00 +17°C° 1.1 mm 3 m/S 577 mmHg 82%
20:00 +16°C° 1.1 mm 3 m/S 577 mmHg 86%
21:00 +15°C° 0 mm 2 m/S 577 mmHg 88%
22:00 +15°C° 0 mm 2 m/S 577 mmHg 90%
23:00 +14°C° 0 mm 1 m/S 576 mmHg 91%

Morgen, 5 August, Mittwoch

Zeit Temperatur Niederschläge Wind Luftdruck Luftfeuchtigkeit
00:00 +14°C° 0 mm 1 m/S 576 mmHg 91%
01:00 +14°C° 0 mm 1 m/S 576 mmHg 91%
02:00 +14°C° 0 mm 1 m/S 575 mmHg 90%
03:00 +13°C° 0 mm 1 m/S 575 mmHg 91%
04:00 +13°C° 0 mm 1 m/S 575 mmHg 91%
05:00 +12°C° 0 mm 0 m/S 575 mmHg 91%
06:00 +13°C° 0 mm 0 m/S 576 mmHg 86%
07:00 +15°C° 0 mm 0 m/S 577 mmHg 80%
08:00 +16°C° 0 mm 0 m/S 578 mmHg 74%
09:00 +20°C° 0 mm 1 m/S 578 mmHg 68%
10:00 +20°C° 0 mm 2 m/S 579 mmHg 63%
11:00 +23°C° 0 mm 2 m/S 579 mmHg 58%
12:00 +22°C° 0.4 mm 3 m/S 579 mmHg 57%
13:00 +23°C° 0.4 mm 4 m/S 578 mmHg 55%
14:00 +23°C° 0.4 mm 5 m/S 578 mmHg 54%
15:00 +22°C° 0.7 mm 5 m/S 577 mmHg 60%
16:00 +21°C° 0.7 mm 5 m/S 577 mmHg 66%
17:00 +20°C° 0.7 mm 5 m/S 576 mmHg 72%
18:00 +18°C° 0.4 mm 4 m/S 576 mmHg 77%
19:00 +16°C° 0.4 mm 3 m/S 576 mmHg 83%
20:00 +15°C° 0.4 mm 2 m/S 576 mmHg 89%
21:00 +15°C° 0 mm 2 m/S 576 mmHg 89%
22:00 +14°C° 0 mm 2 m/S 576 mmHg 89%
23:00 +14°C° 0 mm 1 m/S 576 mmHg 89%

übermorgen, 6 August, Donnerstag

Zeit Temperatur Niederschläge Wind Luftdruck Luftfeuchtigkeit
00:00 +14°C° 0 mm 1 m/S 575 mmHg 90%
01:00 +13°C° 0 mm 1 m/S 575 mmHg 91%
02:00 +13°C° 0 mm 1 m/S 574 mmHg 91%
03:00 +13°C° 0 mm 1 m/S 574 mmHg 91%
04:00 +13°C° 0 mm 1 m/S 574 mmHg 91%
05:00 +12°C° 0 mm 1 m/S 574 mmHg 92%
06:00 +14°C° 0 mm 1 m/S 575 mmHg 85%
07:00 +15°C° 0 mm 1 m/S 576 mmHg 78%
08:00 +18°C° 0 mm 1 m/S 577 mmHg 71%
09:00 +19°C° 0 mm 2 m/S 578 mmHg 65%
10:00 +20°C° 0 mm 2 m/S 578 mmHg 58%
11:00 +22°C° 0 mm 3 m/S 579 mmHg 51%
12:00 +23°C° 0 mm 4 m/S 578 mmHg 50%
13:00 +23°C° 0 mm 4 m/S 578 mmHg 49%
14:00 +25°C° 0 mm 5 m/S 578 mmHg 48%
15:00 +22°C° 0.1 mm 5 m/S 577 mmHg 52%
16:00 +21°C° 0.1 mm 4 m/S 577 mmHg 56%
17:00 +20°C° 0.1 mm 4 m/S 576 mmHg 59%
18:00 +19°C° 0 mm 4 m/S 576 mmHg 68%
19:00 +17°C° 0 mm 3 m/S 576 mmHg 77%
20:00 +14°C° 0 mm 3 m/S 576 mmHg 86%
21:00 +15°C° 0 mm 2 m/S 576 mmHg 88%
22:00 +14°C° 0 mm 2 m/S 576 mmHg 90%
23:00 +14°C° 0 mm 2 m/S 576 mmHg 92%

7 August, Freitag

Zeit Temperatur Niederschläge Wind Luftdruck Luftfeuchtigkeit
00:00 +14°C° 0 mm 2 m/S 575 mmHg 91%
01:00 +14°C° 0 mm 2 m/S 575 mmHg 90%
02:00 +14°C° 0 mm 1 m/S 575 mmHg 89%
03:00 +14°C° 0 mm 1 m/S 575 mmHg 88%
04:00 +14°C° 0 mm 1 m/S 575 mmHg 88%
05:00 +14°C° 0 mm 1 m/S 575 mmHg 87%
06:00 +15°C° 0 mm 2 m/S 576 mmHg 82%
07:00 +16°C° 0 mm 2 m/S 577 mmHg 76%
08:00 +17°C° 0 mm 2 m/S 577 mmHg 71%
09:00 +19°C° 0 mm 2 m/S 578 mmHg 66%
10:00 +20°C° 0 mm 3 m/S 578 mmHg 60%
11:00 +21°C° 0 mm 3 m/S 579 mmHg 55%
12:00 +22°C° 0.4 mm 4 m/S 578 mmHg 54%
13:00 +22°C° 0.4 mm 5 m/S 578 mmHg 53%
14:00 +23°C° 0.4 mm 6 m/S 578 mmHg 52%
15:00 +22°C° 0.3 mm 6 m/S 577 mmHg 57%
16:00 +20°C° 0.3 mm 6 m/S 577 mmHg 63%
17:00 +19°C° 0.3 mm 5 m/S 576 mmHg 69%
18:00 +17°C° 0.2 mm 5 m/S 576 mmHg 75%
19:00 +15°C° 0.2 mm 4 m/S 576 mmHg 82%
20:00 +14°C° 0.2 mm 3 m/S 576 mmHg 88%
21:00 +14°C° 0 mm 2 m/S 576 mmHg 89%
22:00 +14°C° 0 mm 2 m/S 576 mmHg 90%
23:00 +14°C° 0 mm 2 m/S 576 mmHg 90%

8 August, Samstag

Zeit Temperatur Niederschläge Wind Luftdruck Luftfeuchtigkeit
00:00 +14°C° 0 mm 2 m/S 576 mmHg 90%
01:00 +13°C° 0 mm 2 m/S 575 mmHg 90%
02:00 +13°C° 0 mm 2 m/S 575 mmHg 90%
03:00 +12°C° 0 mm 1 m/S 575 mmHg 90%
04:00 +11°C° 0 mm 1 m/S 575 mmHg 91%
05:00 +11°C° 0 mm 1 m/S 575 mmHg 91%
06:00 +13°C° 0 mm 1 m/S 576 mmHg 81%
07:00 +14°C° 0 mm 1 m/S 577 mmHg 70%
08:00 +16°C° 0 mm 2 m/S 578 mmHg 60%
09:00 +18°C° 0 mm 2 m/S 579 mmHg 54%
10:00 +20°C° 0 mm 3 m/S 579 mmHg 47%
11:00 +22°C° 0 mm 4 m/S 580 mmHg 41%
12:00 +22°C° 0 mm 5 m/S 579 mmHg 44%
13:00 +22°C° 0 mm 5 m/S 579 mmHg 46%
14:00 +22°C° 0 mm 6 m/S 578 mmHg 48%
15:00 +21°C° 0.2 mm 6 m/S 578 mmHg 55%
16:00 +20°C° 0.2 mm 6 m/S 577 mmHg 62%
17:00 +17°C° 0.2 mm 5 m/S 577 mmHg 68%
18:00 +16°C° 0 mm 5 m/S 577 mmHg 74%
19:00 +14°C° 0 mm 4 m/S 577 mmHg 80%
20:00 +13°C° 0 mm 3 m/S 577 mmHg 86%
21:00 +14°C° 0 mm 2 m/S 577 mmHg 87%
22:00 +13°C° 0 mm 2 m/S 576 mmHg 88%
23:00 +13°C° 0 mm 2 m/S 576 mmHg 89%

9 August, Sonntag

Zeit Temperatur Niederschläge Wind Luftdruck Luftfeuchtigkeit
00:00 +12°C° 0 mm 2 m/S 576 mmHg 89%
01:00 +12°C° 0 mm 1 m/S 575 mmHg 90%
02:00 +11°C° 0 mm 1 m/S 575 mmHg 90%
03:00 +11°C° 0 mm 1 m/S 575 mmHg 90%
04:00 +11°C° 0 mm 1 m/S 575 mmHg 89%
05:00 +10°C° 0 mm 1 m/S 575 mmHg 89%
06:00 +12°C° 0 mm 1 m/S 576 mmHg 80%
07:00 +14°C° 0 mm 1 m/S 577 mmHg 71%
08:00 +15°C° 0 mm 1 m/S 578 mmHg 62%
09:00 +17°C° 0 mm 2 m/S 578 mmHg 56%
10:00 +19°C° 0 mm 2 m/S 579 mmHg 50%
11:00 +21°C° 0 mm 2 m/S 580 mmHg 44%
12:00 +21°C° 0.1 mm 3 m/S 579 mmHg 48%
13:00 +21°C° 0.1 mm 5 m/S 578 mmHg 51%
14:00 +21°C° 0.1 mm 6 m/S 578 mmHg 55%
15:00 +20°C° 0.7 mm 5 m/S 577 mmHg 61%
16:00 +19°C° 0.7 mm 5 m/S 577 mmHg 68%
17:00 +17°C° 0.7 mm 5 m/S 576 mmHg 75%
18:00 +17°C° 0.3 mm 4 m/S 576 mmHg 79%
19:00 +15°C° 0.3 mm 4 m/S 576 mmHg 83%
20:00 +14°C° 0.3 mm 3 m/S 576 mmHg 88%
21:00 +15°C° 0.1 mm 2 m/S 576 mmHg 88%
22:00 +14°C° 0.1 mm 2 m/S 576 mmHg 89%
23:00 +14°C° 0.1 mm 2 m/S 576 mmHg 90%
Mehr zeigen